Wind_Speed
40 37 34 34 33 32 31 29 27 28 29 28 26 24 21 19 17 15 13 10 8 11 13 13 13 12 13 13 12 13 14 13 12 13 14 15 15 16 16 16 16 15 15 14 13 13 14 15 16 17 18 19 20 21 21 21 20 19 19 18 17 17 17
45 41 36 35 37 37 36 32 30 31 31 30 29 26 23 21 19 17 15 12 10 12 13 13 13 12 13 13 11 10 11 13 13 11 12 13 14 16 16 16 16 15 14 14 13 13 13 14 15 16 16 18 19 21 22 22 22 21 20 19 18 17 17
49 45 41 40 41 39 38 36 34 34 33 31 30 28 25 23 20 19 18 17 15 14 14 13 13 12 13 14 12 10 8 10 12 10 10 13 14 15 16 17 16 15 15 14 14 13 13 13 14 15 15 16 18 20 21 23 23 23 22 21 19 19 18
52 48 45 44 42 39 38 38 37 36 34 30 29 27 25 24 22 21 21 22 21 18 16 15 14 14 14 14 13 11 8 8 9 8 9 12 14 15 16 16 16 15 15 14 14 14 13 13 14 15 15 16 17 18 20 21 23 24 24 22 21 20 19
54 52 49 47 44 41 40 40 39 39 37 32 30 28 26 25 24 23 24 25 25 22 19 18 16 16 15 15 13 12 11 9 8 7 8 11 13 14 15 16 16 15 14 14 14 14 14 13 14 14 15 16 16 17 18 19 21 22 23 23 22 20 19
55 54 53 51 49 47 45 43 43 43 41 39 36 32 30 28 27 27 27 27 26 24 22 20 18 16 15 15 14 13 12 12 10 7 7 9 11 13 14 14 15 15 14 14 13 13 13 13 13 14 15 16 16 16 16 17 18 19 20 21 21 20 19
57 55 55 54 53 51 49 47 46 45 44 43 41 37 34 32 31 31 30 28 27 25 24 22 18 16 16 15 15 15 14 14 12 10 9 8 9 11 13 13 14 14 15 14 13 12 12 12 13 13 14 15 15 15 15 15 15 16 16 18 19 18 18
59 58 57 57 56 54 51 50 49 47 44 42 42 39 37 35 34 34 32 29 28 27 25 23 19 17 16 15 15 15 15 14 13 12 11 9 9 10 12 13 14 14 14 15 15 13 12 12 12 13 13 13 14 15 15 14 13 13 13 14 15 15 16
63 61 59 58 58 56 54 52 51 49 46 44 42 39 38 37 36 35 32 31 30 27 24 23 22 20 18 16 15 13 13 13 12 11 11 10 9 9 11 11 13 14 14 14 15 14 13 12 12 13 12 12 13 14 14 14 13 12 11 11 11 12 12
67 65 62 59 58 58 57 55 52 49 48 47 44 41 40 39 39 36 33 31 28 25 23 24 25 23 19 18 17 14 12 13 13 12 12 12 11 10 10 10 11 13 12 12 13 14 13 12 12 13 13 13 12 13 13 13 13 12 10 9 9 9 9
68 68 66 62 60 59 59 58 56 53 51 50 48 46 43 42 41 39 36 32 28 25 25 25 25 24 23 23 23 18 14 15 15 15 15 15 14 12 11 10 11 13 13 11 11 12 13 12 11 12 13 13 13 12 12 12 13 12 11 9 7 7 7
68 68 68 66 63 61 60 59 59 58 56 54 53 50 47 44 43 42 40 37 32 28 27 26 25 26 27 29 28 23 19 18 18 17 17 17 16 14 12 11 11 14 15 13 10 10 11 11 11 11 11 12 12 12 12 12 12 12 11 10 8 6 5
69 69 69 68 67 65 63 62 60 60 59 57 55 53 51 48 44 43 42 41 39 35 33 32 29 29 31 32 30 28 25 23 22 21 19 18 17 16 15 13 12 14 16 16 13 11 10 10 11 11 10 11 11 11 11 11 11 11 11 10 9 7 6
72 71 70 69 69 68 66 64 63 61 60 59 58 56 53 50 46 43 42 42 41 40 39 37 34 32 33 35 34 31 29 27 26 24 22 20 20 19 18 15 14 15 16 17 16 15 13 12 11 11 10 9 10 10 10 10 11 11 11 11 10 9 8
75 73 71 70 70 69 68 67 65 63 62 61 60 57 54 51 48 46 43 41 40 40 40 38 35 34 36 37 35 31 28 28 29 27 25 24 22 22 21 18 17 16 17 18 18 18 17 15 14 13 11 10 10 10 10 10 10 11 11 11 11 11 10
79 76 73 71 71 70 70 69 68 66 64 62 61 58 55 52 49 46 44 42 41 40 38 35 33 36 39 38 35 31 29 31 31 28 27 26 25 24 23 22 20 19 19 20 21 22 21 20 18 15 14 13 12 11 10 10 10 11 11 12 11 11 11
82 80 77 74 72 71 71 71 70 68 66 64 61 59 56 53 48 45 45 43 41 39 36 35 37 40 41 41 40 37 36 36 34 30 28 27 25 25 25 24 23 22 22 23 24 24 24 24 21 18 16 16 15 15 13 12 12 12 12 13 13 12 12
84 83 81 78 74 72 72 72 71 70 68 66 63 60 56 50 45 45 46 43 39 38 37 40 44 45 44 44 44 43 41 40 38 34 31 29 28 27 26 28 27 26 24 24 25 25 26 26 25 21 19 19 19 19 17 15 14 14 13 14 16 15 14
83 84 83 82 79 76 73 72 72 71 70 68 66 64 61 55 50 49 49 44 40 39 38 40 45 46 45 46 47 46 44 42 39 37 35 34 33 31 29 30 30 29 28 27 26 26 27 27 26 24 22 22 22 22 21 19 18 17 16 16 17 18 18
81 83 83 84 83 81 78 75 73 73 72 71 69 67 65 64 60 58 55 49 43 41 39 38 40 43 45 47 48 46 44 41 39 39 39 37 36 33 32 33 33 32 32 30 27 28 28 29 29 27 25 25 25 24 23 22 20 20 20 19 18 19 20
81 82 83 84 84 84 83 79 76 76 75 74 72 70 68 67 65 64 62 56 50 47 44 40 41 45 47 49 48 46 43 42 41 40 40 39 38 36 35 35 35 35 33 31 29 29 30 31 31 29 28 28 28 27 26 25 24 24 23 22 21 20 21
83 83 84 85 85 85 85 83 80 78 78 77 75 73 71 69 67 66 65 63 59 54 49 46 47 49 48 47 46 46 45 43 42 41 41 42 42 41 39 37 36 35 33 32 31 31 31 31 30 29 29 30 31 31 29 27 27 27 27 26 25 23 22
86 85 84 85 85 85 85 84 82 81 80 79 78 75 73 71 70 68 67 68 67 61 56 53 50 49 48 47 46 46 46 45 43 43 43 43 45 45 42 39 37 36 35 33 33 33 32 32 32 32 32 32 34 33 31 30 29 29 30 30 29 28 26
88 88 86 85 85 86 85 84 83 83 81 79 78 77 75 73 73 72 70 71 71 67 63 61 57 53 50 51 51 49 48 46 44 43 44 44 45 45 43 40 39 40 38 35 34 35 34 33 33 34 35 36 38 36 33 33 33 31 32 33 32 32 31
90 90 89 88 86 86 86 85 84 84 83 81 79 77 75 73 74 75 74 74 73 71 67 66 67 65 61 59 57 55 53 51 47 44 44 44 43 42 41 40 40 42 42 39 37 37 37 36 35 36 37 41 44 42 39 39 38 35 33 34 34 35 34
92 92 92 91 89 88 87 87 86 86 85 84 82 80 77 74 73 75 77 77 76 76 73 69 69 70 69 66 62 59 58 57 53 49 47 47 46 44 42 42 43 45 45 43 39 38 38 37 36 37 38 41 45 45 43 42 42 39 37 37 37 37 36
95 94 94 93 92 90 88 87 87 88 88 87 86 84 82 79 76 76 78 80 79 80 80 76 71 69 69 68 65 62 61 61 59 55 52 50 49 49 48 47 47 49 49 46 42 39 39 39 38 38 39 41 45 47 45 44 45 44 44 43 41 40 39
97 96 96 95 94 92 91 89 89 89 89 90 89 88 87 85 83 81 80 81 82 83 84 83 80 75 72 70 68 65 63 62 61 60 57 54 52 51 51 51 52 53 54 54 50 47 46 47 45 43 44 46 48 49 49 48 48 48 48 47 45 44 42
99 99 98 97 96 94 93 92 91 90 91 92 92 92 90 88 87 86 85 85 85 86 87 87 87 84 81 77 75 72 69 67 65 64 63 62 60 58 57 57 58 58 59 59 58 55 53 53 52 52 52 52 52 52 52 52 51 50 50 50 49 48 46
101 100 100 99 99 97 96 95 94 93 93 94 95 95 94 92 90 89 89 89 89 89 90 90 90 90 88 86 83 81 78 77 75 74 71 69 67 66 66 65 65 65 65 64 64 63 60 58 57 57 57 56 54 53 54 54 55 54 53 52 52 52 51
102 102 102 101 101 100 99 98 97 96 95 96 96 97 98 97 95 93 91 91 92 92 93 93 93 94 94 93 91 89 87 86 85 83 81 77 73 70 70 70 70 71 72 72 72 72 71 69 66 64 62 60 59 57 57 57 58 57 56 55 55 55 55
103 103 103 103 103 103 103 102 101 100 99 98 99 99 100 100 100 99 97 95 94 94 94 94 95 96 97 98 98 97 96 94 93 90 88 86 82 78 75 73 73 73 76 78 79 79 79 78 75 70 67 65 65 64 63 63 61 59 58 59 59 59 59
105 105 105 105 105 104 104 105 104 103 103 102 101 101 102 102 103 104 104 102 99 97 96 96 96 96 97 98 100 100 100 99 98 95 92 91 89 87 84 81 79 77 76 78 80 82 81 80 79 76 74 72 70 69 69 69 68 67 66 65 65 65 63
107 105 105 106 107 107 107 107 107 107 107 106 105 104 103 104 104 105 106 107 106 105 103 101 100 99 99 99 100 100 101 101 100 99 96 94 93 92 91 89 87 84 82 80 80 81 82 81 81 81 80 80 78 77 76 76 76 76 75 74 73 72 71
110 109 107 106 107 109 110 110 110 110 109 109 108 107 106 106 106 106 107 108 109 110 110 108 107 105 104 103 103 102 102 102 102 101 99 98 97 96 95 94 93 92 91 90 89 88 88 88 88 88 88 87 88 87 86 84 83 82 82 80 79 78 78
113 113 112 110 109 109 110 111 112 112 111 111 111 110 110 109 109 108 108 109 110 111 112 113 112 111 110 109 108 107 106 105 104 103 102 100 99 99 98 98 97 97 97 96 96 96 96 96 96 97 96 96 95 95 94 92 90 89 87 85 83 82 81
113 114 114 115 114 113 111 112 112 113 113 113 112 112 112 112 111 111 111 111 111 111 112 114 114 114 114 113 113 112 111 110 110 109 107 106 105 104 103 102 102 101 101 101 101 100 100 100 100 101 102 101 100 99 98 97 95 94 92 91 88 86 84
114 114 115 116 118 118 116 115 114 114 114 114 114 114 114 113 113 113 113 114 113 113 113 113 114 115 115 116 116 115 115 114 114 113 112 111 110 109 107 106 106 105 105 105 105 104 103 103 102 103 104 103 103 101 100 98 97 96 95 94 92 90 88
Wind_Direction
213 213 219 227 226 222 220 221 224 226 226 229 231 234 237 241 249 260 271 281 298 308 313 319 323 332 354 4 7 5 1 5 15 22 19 15 16 15 15 17 19 21 21 22 21 16 16 19 25 30 32 31 32 35 38 40 43 44 45 47 47 48 48
214 212 213 222 227 226 225 226 228 229 229 229 232 233 236 240 246 255 263 266 282 302 304 304 307 314 329 342 352 1 3 0 360 13 24 20 19 18 14 12 14 15 16 18 18 14 11 10 14 20 23 24 25 29 33 37 41 43 44 46 47 47 48
216 215 214 217 223 226 229 230 228 228 228 229 232 233 234 237 240 247 253 256 268 290 296 295 297 302 309 318 329 341 357 2 353 360 27 28 22 19 14 10 10 10 11 13 13 12 10 7 7 10 13 16 18 22 27 33 37 41 43 45 46 47 47
220 219 216 217 221 225 229 231 228 226 228 229 233 235 237 237 235 239 245 249 260 277 288 292 292 292 296 302 312 322 332 348 348 355 23 27 21 16 12 10 7 4 5 7 8 8 9 7 5 5 6 9 13 16 20 27 34 38 41 45 46 47 48
222 221 218 216 218 221 224 226 225 225 227 230 233 237 241 241 238 239 242 247 255 268 282 291 290 283 286 293 300 310 317 320 328 347 9 13 11 9 7 6 3 359 360 1 1 2 5 5 4 4 4 4 8 12 14 20 29 35 39 43 46 48 50
222 222 220 218 217 217 219 222 223 224 226 230 235 238 240 241 241 242 244 248 254 264 277 286 283 272 275 287 291 297 307 308 306 313 332 345 353 358 0 0 357 356 356 356 355 357 359 0 0 2 3 3 4 9 12 17 23 30 36 42 45 48 51
223 222 222 222 220 219 220 223 225 226 228 232 236 237 238 238 240 243 246 251 256 264 273 277 273 264 267 280 285 288 298 303 299 295 300 316 334 347 353 354 352 351 354 355 352 351 353 355 357 358 0 2 3 5 9 14 19 25 32 39 44 47 50
223 223 224 224 224 223 224 223 225 229 231 233 236 237 236 237 239 242 247 252 257 264 269 269 267 263 263 273 281 287 296 300 296 292 294 305 320 335 345 347 346 344 350 356 354 349 350 352 355 357 357 359 0 2 6 10 16 23 29 35 42 45 47
224 224 224 225 225 225 225 223 224 227 230 231 233 234 234 235 239 242 247 253 256 259 260 262 265 263 261 268 275 283 292 292 291 291 294 302 309 319 330 335 338 336 341 353 355 351 349 350 356 359 359 359 359 359 1 5 10 18 27 34 39 42 44
226 225 224 225 226 226 226 224 223 225 228 229 230 231 232 236 240 241 245 252 252 247 248 256 263 262 259 263 267 272 277 276 281 293 299 301 299 302 313 321 326 327 330 343 351 352 350 349 356 2 1 1 360 358 358 359 3 7 15 28 36 38 39
226 226 225 224 225 226 227 226 225 225 226 228 228 231 233 236 237 238 241 246 244 238 241 251 258 259 256 256 257 261 265 262 267 281 292 291 288 292 301 307 312 315 316 326 339 347 346 343 349 359 3 3 0 358 356 354 355 358 1 10 24 33 34
225 225 225 225 224 225 226 227 227 226 227 227 229 231 233 234 237 240 243 243 239 236 239 245 252 255 255 253 252 255 262 263 260 264 273 276 275 281 290 295 299 301 302 305 314 330 336 332 333 342 355 0 359 357 354 349 348 349 350 353 1 14 23
225 225 224 224 225 225 226 226 227 227 227 228 229 231 232 234 238 242 242 241 239 239 240 244 251 256 257 256 253 253 260 265 262 258 260 262 264 270 279 285 286 286 288 289 292 304 317 319 317 320 333 347 351 352 352 347 341 340 340 341 343 347 355
224 225 225 224 225 226 226 226 227 228 229 230 231 231 231 232 234 236 238 238 239 240 243 247 252 256 257 256 253 253 258 262 262 261 259 257 257 262 269 274 275 275 276 277 281 290 299 304 305 304 310 322 332 338 343 342 336 331 330 331 331 332 333
224 225 225 224 224 225 226 226 227 227 228 230 231 230 230 230 231 233 236 237 238 240 243 247 248 248 249 250 250 251 255 258 259 260 260 258 255 255 259 264 267 268 266 266 271 278 285 291 295 296 297 301 307 316 323 327 327 323 319 319 320 321 321
223 224 224 224 224 225 226 226 227 227 227 228 229 230 229 229 229 232 236 238 239 241 243 246 248 248 246 246 246 248 251 254 255 255 256 258 257 255 257 258 260 260 259 258 263 270 276 280 284 287 289 290 291 295 301 307 310 310 309 305 304 306 307
223 223 224 224 224 224 225 226 226 227 227 227 228 228 229 228 229 231 235 237 238 239 240 241 243 245 244 243 244 246 246 247 249 250 251 254 256 257 259 259 255 253 254 254 257 263 269 272 275 278 281 282 282 283 285 287 291 294 297 297 293 289 288
223 224 224 224 224 224 225 226 226 226 226 227 226 226 226 225 224 227 230 231 230 231 233 235 236 238 239 240 243 245 243 242 244 246 248 251 252 252 256 260 256 251 251 252 252 255 260 264 267 269 272 273 274 274 275 275 276 279 284 291 293 289 282
224 224 224 224 223 223 224 225 226 226 226 226 225 225 223 221 221 223 225 224 221 222 227 232 233 234 236 237 240 242 241 239 240 243 244 248 251 248 249 256 257 254 253 252 249 249 251 254 257 261 264 266 267 269 270 271 273 275 278 284 291 293 291
225 224 225 224 224 224 224 225 226 227 226 226 225 224 223 222 222 223 222 220 216 216 220 225 229 231 233 234 235 238 238 237 238 240 240 243 246 245 242 247 252 255 257 255 251 249 248 247 248 251 256 260 263 264 265 266 267 269 272 276 280 286 290
226 225 225 225 225 225 225 225 226 227 227 226 225 224 224 223 223 224 223 219 216 217 218 221 226 229 231 232 232 232 234 236 237 239 239 239 240 239 238 241 247 250 253 253 251 250 249 248 249 251 254 257 259 259 259 258 259 261 265 268 270 273 278
228 227 226 225 225 226 226 226 226 227 228 228 227 225 224 224 223 224 224 220 218 217 216 216 221 226 228 228 229 229 230 231 233 235 237 237 237 238 239 240 243 244 246 248 249 250 251 253 254 255 257 260 260 259 258 258 259 262 264 266 267 268 269
229 229 228 227 226 226 226 226 226 227 228 229 229 228 226 225 223 223 223 222 220 218 215 213 215 221 223 222 221 222 224 225 228 231 233 234 236 238 239 239 238 239 241 243 246 250 252 255 257 257 259 261 260 259 259 259 260 263 266 266 266 266 266
230 230 230 229 228 227 226 225 226 226 227 227 228 228 227 226 225 223 223 222 221 220 218 215 213 213 216 216 215 215 216 217 222 226 229 231 234 236 237 237 236 238 238 238 241 246 250 254 259 260 261 262 261 258 258 258 256 257 261 262 262 263 265
230 231 231 231 230 229 227 226 225 226 226 226 225 225 225 224 223 223 223 222 221 220 219 219 217 214 213 213 213 213 212 212 216 221 224 226 228 229 232 234 235 236 237 236 237 240 243 247 253 257 258 261 262 259 256 255 254 251 252 255 257 259 261
229 230 231 231 231 231 230 228 226 226 227 226 224 223 222 221 220 221 222 221 220 219 218 219 220 218 216 214 214 214 214 213 213 216 221 222 220 220 224 226 228 231 233 233 235 238 240 243 247 249 251 255 257 255 252 252 252 250 248 248 251 255 257
229 230 230 231 231 231 231 230 229 227 227 227 226 225 224 222 220 220 220 220 219 219 219 219 220 220 219 218 217 217 217 217 214 215 219 223 222 221 223 224 226 228 230 230 230 234 236 235 236 239 243 247 249 249 247 247 249 249 248 246 247 249 253
231 231 231 231 231 232 232 232 231 230 228 228 228 227 226 225 224 222 221 220 219 218 219 220 221 221 220 219 219 218 219 219 217 216 219 223 226 228 230 232 231 230 231 230 227 227 228 227 226 230 235 240 244 244 244 244 244 244 245 246 245 245 247
231 232 232 232 231 231 231 232 232 231 230 230 229 228 228 227 227 225 223 222 220 219 219 220 222 222 222 221 220 219 220 221 221 221 222 225 228 230 234 236 236 235 235 234 232 230 229 227 226 228 232 238 242 243 243 245 245 244 246 248 248 246 246
232 233 233 233 233 232 232 231 231 231 231 231 230 230 229 228 227 227 226 225 223 222 221 221 222 223 224 224 223 223 223 226 228 230 230 231 231 232 234 237 239 240 240 240 239 238 236 233 232 232 235 239 242 243 245 247 248 248 249 251 252 252 253
233 233 234 234 234 234 233 232 231 231 231 231 231 231 230 229 228 227 227 227 226 225 224 224 224 224 225 226 226 227 228 230 233 235 236 236 234 233 234 237 239 241 242 243 244 244 244 244 241 237 237 239 242 246 250 251 250 251 253 254 256 258 259
233 233 233 234 235 235 235 234 233 232 231 232 232 231 231 230 230 229 228 227 227 227 227 226 226 226 226 227 228 229 230 232 235 237 238 238 237 236 235 237 240 242 243 244 245 247 247 247 243 238 236 240 245 250 253 253 252 254 256 258 260 261 261
233 233 233 233 234 235 235 235 235 234 232 232 232 232 232 232 231 230 229 229 228 228 229 229 229 228 228 228 228 229 230 232 234 236 237 239 239 239 237 237 238 241 243 243 243 243 243 242 240 237 237 241 247 252 254 254 254 255 257 259 261 262 262
234 234 233 233 233 234 235 235 235 235 234 233 233 232 233 233 233 232 231 231 231 230 231 231 231 231 231 230 230 230 231 232 233 234 236 237 239 240 240 239 238 238 239 240 240 240 239 238 238 238 238 241 246 251 254 255 255 255 256 258 260 261 262
235 235 234 234 234 234 234 235 235 235 235 235 234 233 233 233 233 233 233 233 233 233 233 233 234 234 234 234 233 233 233 233 234 235 236 237 238 239 240 241 241 240 240 240 240 241 242 242 243 243 244 245 248 251 254 256 256 257 257 258 259 259 260
236 236 236 235 235 234 235 235 235 235 236 236 236 235 235 234 234 234 234 234 234 234 234 235 235 236 236 237 237 237 237 237 237 237 238 238 239 240 241 241 242 242 242 242 242 242 243 245 246 248 249 250 251 253 255 256 258 258 259 259 259 259 259
236 236 236 236 236 236 236 236 236 236 236 236 237 237 236 236 236 235 235 235 235 235 235 236 236 237 237 238 239 240 240 241 241 242 242 242 242 243 243 243 243 243 243 244 244 244 244 245 246 248 250 252 253 254 255 256 258 259 259 259 259 259 258
237 237 237 237 237 237 237 237 237 237 237 237 237 237 237 237 237 237 237 237 237 236 236 236 237 237 238 238 239 240 241 242 243 243 244 245 245 245 245 245 245 245 244 244 245 246 246 246 246 247 249 251 253 254 255 256 257 258 258 258 258 258 258
Height
10990 10993 10996 11000 11002 11003 11006 11008 11010 11011 11013 11014 11015 11017 11018 11020 11021 11022 11023 11024 11024 11025 11025 11025 11025 11024 11024 11023 11023 11022 11022 11021 11020 11020 11020 11020 11020 11020 11020 11020 11020 11020 11020 11019 11019 11019 11018 11018 11018 11018 11018 11018 11017 11016 11016 11015 11013 11013 11012 11011 11011 11010 11009
10986 10990 10995 10997 10998 11000 11003 11005 11007 11008 11010 11011 11012 11014 11016 11018 11020 11021 11022 11022 11022 11023 11023 11024 11024 11024 11024 11023 11023 11023 11022 11022 11021 11020 11020 11020 11020 11020 11020 11020 11020 11020 11021 11020 11020 11020 11020 11019 11019 11019 11019 11019 11019 11018 11018 11017 11016 11015 11014 11014 11013 11012 11011
10982 10987 10992 10993 10993 10997 11000 11002 11004 11005 11007 11008 11009 11012 11014 11016 11018 11019 11019 11020 11020 11021 11022 11023 11023 11024 11024 11023 11023 11023 11023 11022 11022 11021 11021 11021 11021 11021 11021 11021 11021 11021 11021 11021 11021 11021 11021 11020 11020 11020 11020 11021 11020 11020 11020 11020 11018 11018 11017 11016 11015 11014 11014
10979 10984 10988 10989 10992 10996 10997 10999 11001 11003 11005 11006 11007 11010 11012 11014 11015 11016 11017 11017 11018 11019 11021 11022 11022 11023 11023 11023 11023 11023 11022 11022 11022 11022 11021 11021 11021 11021 11021 11021 11021 11021 11022 11021 11021 11021 11021 11021 11021 11021 11021 11022 11021 11021 11021 11021 11021 11020 11019 11019 11018 11017 11016
10975 10980 10983 10986 10989 10992 10993 10996 10998 11001 11002 11004 11005 11008 11010 11011 11012 11013 11014 11015 11016 11018 11020 11021 11022 11022 11022 11022 11023 11022 11022 11022 11022 11022 11021 11021 11021 11021 11021 11021 11021 11022 11022 11022 11022 11022 11022 11022 11022 11022 11022 11022 11022 11022 11022 11022 11022 11022 11022 11021 11020 11019 11018
10971 10975 10979 10981 10983 10985 10988 10991 10993 10995 10998 10999 11002 11005 11007 11008 11009 11010 11011 11012 11014 11016 11018 11020 11020 11020 11021 11021 11021 11022 11022 11022 11022 11021 11021 11021 11021 11021 11021 11021 11022 11022 11022 11022 11022 11022 11022 11022 11022 11023 11023 11023 11023 11023 11023 11023 11023 11023 11023 11023 11023 11022 11021
10967 10971 10974 10976 10977 10980 10984 10987 10988 10990 10993 10996 10999 11002 11003 11005 11006 11007 11008 11010 11012 11014 11016 11018 11018 11019 11019 11020 11020 11021 11021 11021 11021 11021 11021 11021 11021 11021 11021 11021 11022 11022 11022 11022 11022 11022 11022 11022 11022 11023 11023 11023 11023 11023 11023 11023 11024 11024 11024 11024 11024 11024 11023
10962 10966 10969 10970 10972 10975 10980 10982 10984 10987 10990 10992 10995 10998 11000 11002 11003 11004 11005 11008 11010 11012 11014 11015 11016 11017 11018 11018 11019 11020 11020 11020 11020 11021 11020 11020 11021 11021 11021 11021 11022 11022 11022 11022 11022 11022 11022 11022 11022 11023 11023 11023 11024 11024 11024 11024 11024 11024 11025 11025 11025 11025 11024
10955 10958 10962 10965 10968 10972 10975 10978 10980 10983 10985 10988 10991 10994 10997 10999 11000 11001 11004 11006 11008 11010 11011 11013 11014 11015 11016 11017 11018 11018 11019 11019 11019 11020 11020 11020 11020 11021 11021 11021 11021 11022 11022 11022 11022 11022 11022 11022 11022 11022 11022 11023 11023 11024 11024 11024 11025 11025 11025 11025 11025 11025 11025
10948 10951 10957 10961 10964 10967 10969 10973 10976 10978 10981 10984 10987 10990 10993 10995 10996 10999 11001 11004 11006 11007 11008 11010 11012 11014 11015 11016 11017 11017 11017 11018 11018 11019 11019 11019 11020 11020 11020 11020 11021 11021 11022 11022 11022 11022 11022 11022 11022 11022 11022 11023 11023 11023 11024 11025 11025 11025 11025 11025 11025 11025 11025
10940 10945 10950 10955 10958 10961 10964 10967 10970 10973 10976 10979 10982 10985 10988 10990 10992 10994 10998 11001 11003 11004 11006 11007 11009 11011 11012 11014 11014 11015 11015 11016 11017 11017 11017 11018 11018 11018 11019 11019 11020 11020 11021 11021 11022 11022 11022 11022 11022 11022 11022 11022 11022 11023 11023 11024 11025 11025 11025 11025 11025 11025 11025
10933 10938 10943 10948 10951 10954 10956 10960 10964 10967 10970 10973 10976 10980 10983 10986 10988 10991 10994 10998 11001 11002 11002 11003 11005 11007 11009 11010 11011 11012 11013 11013 11014 11014 11014 11015 11016 11016 11017 11018 11018 11019 11020 11020 11020 11020 11021 11021 11021 11022 11022 11022 11022 11022 11023 11023 11024 11025 11025 11025 11025 11025 11024
10926 10931 10936 10940 10944 10947 10950 10953 10957 10961 10964 10967 10971 10975 10978 10982 10986 10989 10991 10994 10997 10998 10998 11000 11002 11004 11006 11007 11008 11009 11010 11011 11010 11011 11011 11012 11012 11013 11014 11015 11016 11017 11017 11018 11019 11019 11019 11019 11020 11020 11021 11021 11021 11021 11022 11022 11023 11023 11024 11024 11025 11025 11025
10919 10923 10929 10934 10938 10941 10944 10947 10951 10955 10958 10961 10965 10969 10973 10979 10982 10984 10986 10989 10992 10994 10995 10996 11000 11002 11004 11004 11005 11006 11008 11008 11007 11007 11007 11008 11008 11009 11011 11012 11013 11014 11015 11015 11016 11017 11017 11017 11018 11018 11019 11019 11020 11020 11020 11020 11021 11021 11022 11023 11023 11024 11024
10911 10916 10922 10927 10931 10934 10937 10940 10944 10948 10952 10955 10959 10964 10970 10975 10978 10980 10982 10986 10988 10990 10991 10993 10996 10999 11000 11000 11001 11003 11005 11004 11002 11002 11003 11004 11004 11006 11007 11008 11009 11010 11011 11012 11013 11014 11014 11015 11015 11016 11016 11017 11018 11018 11019 11019 11019 11020 11020 11021 11022 11023 11023
10903 10908 10913 10919 10923 10926 10929 10933 10937 10941 10945 10948 10953 10959 10965 10969 10974 10977 10980 10982 10984 10986 10989 10992 10995 10995 10996 10996 10997 11000 11002 11000 10998 10997 10999 11000 11001 11002 11004 11005 11005 11006 11007 11008 11009 11010 11011 11012 11013 11013 11014 11015 11015 11016 11017 11017 11017 11018 11018 11019 11019 11020 11021
10894 10899 10905 10911 10916 10920 10922 10926 10930 10934 10938 10942 10947 10953 10960 10966 10972 10975 10975 10977 10979 10982 10986 10989 10990 10990 10990 10992 10993 10996 10998 10997 10995 10995 10995 10996 10998 10999 11001 11002 11002 11003 11003 11004 11005 11007 11008 11009 11010 11011 11011 11012 11012 11013 11014 11015 11015 11016 11016 11017 11017 11018 11018
10886 10890 10896 10903 10909 10912 10915 10918 10922 10927 10931 10935 10941 10947 10955 10962 10967 10967 10966 10970 10974 10977 10980 10982 10983 10983 10985 10986 10988 10990 10992 10992 10992 10992 10992 10993 10994 10996 10998 10999 10999 10999 10999 11000 11001 11003 11004 11005 11007 11007 11008 11008 11009 11009 11011 11012 11013 11013 11014 11015 11016 11016 11016
10877 10881 10887 10893 10899 10904 10907 10911 10915 10919 10923 10928 10934 10941 10947 10953 10956 10955 10957 10963 10968 10972 10975 10976 10977 10978 10979 10980 10982 10984 10985 10986 10988 10989 10989 10991 10991 10993 10995 10996 10995 10995 10994 10995 10996 10998 11000 11002 11003 11004 11004 11005 11005 11006 11008 11009 11011 11012 11012 11013 11014 11015 11015
10869 10873 10878 10883 10889 10894 10899 10903 10907 10911 10915 10920 10927 10933 10939 10943 10946 10946 10950 10957 10963 10966 10969 10971 10972 10972 10972 10974 10976 10978 10980 10982 10984 10984 10985 10987 10988 10990 10992 10992 10992 10990 10989 10990 10991 10993 10994 10997 10998 10999 11001 11001 11002 11003 11005 11007 11008 11009 11010 11011 11012 11012 11013
10860 10864 10869 10874 10879 10884 10889 10895 10899 10902 10906 10912 10918 10924 10930 10936 10938 10940 10945 10952 10956 10959 10962 10964 10964 10963 10965 10968 10971 10974 10975 10977 10978 10979 10981 10983 10985 10986 10987 10988 10988 10986 10985 10986 10987 10988 10989 10992 10994 10996 10998 10999 10999 11000 11001 11002 11004 11005 11006 11007 11008 11009 11010
10849 10854 10859 10864 10870 10875 10880 10886 10891 10894 10898 10904 10911 10917 10923 10928 10931 10933 10938 10944 10947 10950 10954 10954 10953 10954 10958 10964 10967 10968 10969 10971 10973 10974 10976 10978 10980 10981 10982 10984 10984 10983 10982 10982 10984 10985 10987 10989 10991 10994 10995 10996 10996 10997 10998 10999 11000 11001 11002 11003 11004 11005 11006
10841 10845 10850 10855 10861 10867 10873 10878 10883 10886 10891 10897 10904 10910 10915 10920 10923 10926 10931 10935 10938 10941 10944 10945 10946 10950 10955 10959 10961 10960 10962 10965 10968 10969 10970 10972 10974 10975 10977 10979 10979 10979 10978 10979 10980 10981 10983 10986 10988 10990 10991 10992 10993 10994 10995 10997 10998 10999 10999 11000 11001 11002 11002
10833 10836 10841 10846 10852 10859 10865 10870 10874 10878 10883 10889 10895 10901 10906 10911 10915 10919 10922 10926 10930 10933 10936 10937 10939 10943 10946 10949 10950 10951 10954 10959 10961 10962 10964 10966 10968 10970 10972 10974 10975 10975 10975 10976 10976 10977 10979 10982 10985 10986 10987 10987 10988 10990 10992 10993 10994 10995 10995 10996 10997 10997 10998
10824 10828 10832 10837 10843 10849 10855 10861 10866 10870 10875 10881 10886 10892 10897 10901 10906 10910 10914 10918 10922 10926 10928 10929 10929 10931 10935 10938 10941 10943 10947 10950 10952 10954 10957 10959 10961 10964 10967 10969 10971 10971 10971 10972 10972 10973 10975 10978 10981 10983 10983 10982 10982 10984 10987 10987 10988 10989 10990 10991 10992 10993 10994
10814 10818 10822 10828 10834 10840 10846 10852 10858 10862 10866 10872 10877 10882 10888 10893 10897 10901 10905 10909 10914 10917 10921 10921 10921 10925 10929 10932 10935 10939 10941 10942 10944 10947 10950 10952 10954 10957 10959 10961 10963 10963 10964 10966 10968 10969 10971 10973 10976 10977 10977 10976 10976 10978 10980 10981 10982 10984 10985 10986 10987 10989 10990
10805 10809 10814 10819 10825 10831 10837 10844 10849 10854 10858 10863 10867 10873 10878 10883 10888 10892 10896 10901 10905 10909 10912 10914 10915 10919 10923 10927 10931 10934 10935 10936 10938 10940 10942 10945 10948 10951 10952 10953 10954 10955 10957 10960 10963 10964 10965 10967 10968 10969 10969 10970 10970 10971 10974 10976 10976 10977 10978 10981 10983 10984 10985
10795 10799 10805 10811 10817 10823 10829 10835 10841 10846 10850 10854 10858 10863 10868 10873 10878 10883 10887 10892 10896 10900 10904 10906 10908 10911 10915 10919 10924 10927 10929 10930 10932 10933 10936 10939 10942 10944 10946 10947 10948 10949 10950 10953 10956 10956 10956 10958 10960 10961 10961 10962 10963 10965 10966 10967 10969 10970 10971 10974 10976 10978 10980
10784 10789 10794 10801 10807 10813 10819 10825 10831 10836 10840 10845 10849 10854 10859 10863 10868 10873 10878 10882 10887 10890 10894 10896 10899 10902 10905 10909 10914 10917 10920 10922 10924 10927 10929 10931 10934 10937 10939 10940 10942 10943 10944 10947 10949 10949 10949 10951 10953 10953 10954 10956 10957 10958 10958 10959 10961 10963 10965 10967 10969 10971 10974
10776 10780 10785 10790 10796 10802 10808 10814 10819 10824 10829 10834 10838 10843 10848 10853 10858 10862 10867 10872 10876 10880 10883 10886 10889 10892 10895 10899 10903 10907 10910 10913 10915 10918 10921 10924 10927 10929 10932 10933 10934 10936 10937 10939 10941 10943 10944 10945 10946 10947 10948 10949 10950 10951 10952 10953 10954 10956 10958 10960 10962 10964 10967
10765 10770 10775 10779 10784 10790 10796 10802 10807 10812 10817 10821 10826 10831 10836 10841 10847 10851 10855 10860 10865 10869 10872 10875 10878 10881 10885 10888 10892 10896 10900 10902 10905 10908 10911 10915 10918 10921 10923 10925 10927 10928 10929 10931 10933 10935 10937 10939 10940 10941 10942 10942 10943 10945 10947 10947 10947 10948 10951 10953 10955 10957 10959
10752 10757 10763 10768 10773 10778 10783 10789 10795 10800 10804 10809 10813 10818 10823 10828 10834 10839 10843 10848 10853 10857 10860 10864 10867 10870 10874 10877 10881 10885 10889 10892 10895 10897 10900 10904 10907 10911 10914 10917 10919 10920 10921 10923 10924 10926 10928 10930 10933 10934 10934 10935 10935 10937 10940 10941 10942 10942 10943 10944 10946 10949 10951
10738 10745 10751 10756 10761 10765 10770 10775 10781 10786 10791 10796 10801 10805 10811 10816 10821 10826 10831 10836 10840 10845 10848 10852 10855 10859 10863 10866 10870 10874 10877 10881 10884 10887 10890 10893 10896 10900 10904 10907 10910 10912 10913 10914 10915 10917 10918 10920 10923 10924 10926 10927 10928 10929 10932 10934 10936 10937 10937 10938 10938 10940 10942
10724 10732 10739 10743 10748 10752 10756 10760 10765 10770 10776 10782 10788 10793 10798 10803 10808 10813 10818 10823 10828 10832 10836 10840 10843 10847 10851 10855 10858 10862 10865 10869 10873 10876 10880 10883 10886 10889 10892 10896 10899 10902 10904 10905 10906 10907 10909 10910 10912 10914 10916 10917 10919 10921 10924 10926 10927 10929 10931 10932 10933 10933 10934
10709 10717 10724 10729 10733 10737 10741 10745 10750 10755 10761 10768 10774 10780 10785 10790 10795 10799 10805 10810 10814 10819 10823 10827 10831 10835 10839 10843 10846 10850 10853 10857 10861 10865 10868 10872 10875 10878 10881 10884 10887 10890 10893 10895 10897 10898 10899 10901 10902 10904 10905 10907 10909 10911 10913 10916 10918 10919 10921 10924 10925 10926 10927
10695 10702 10709 10714 10719 10723 10727 10731 10736 10742 10748 10754 10760 10766 10771 10776 10781 10785 10791 10796 10801 10805 10809 10813 10818 10822 10826 10830 10834 10838 10842 10845 10849 10852 10856 10859 10862 10866 10869 10872 10875 10878 10881 10883 10886 10888 10889 10890 10891 10892 10894 10896 10898 10900 10902 10905 10907 10909 10912 10914 10916 10917 10918
10680 10687 10694 10699 10704 10708 10713 10717 10722 10728 10734 10739 10745 10750 10756 10762 10767 10772 10777 10782 10786 10791 10795 10799 10804 10809 10813 10817 10821 10825 10828 10832 10835 10838 10841 10845 10848 10852 10855 10859 10862 10866 10869 10871 10873 10875 10878 10880 10881 10882 10883 10885 10886 10889 10891 10894 10896 10899 10901 10903 10905 10906 10907
10666 10673 10680 10684 10687 10691 10696 10702 10708 10714 10720 10725 10731 10736 10742 10748 10753 10758 10762 10766 10771 10776 10780 10785 10790 10795 10799 10803 10807 10811 10814 10817 10820 10823 10826 10829 10833 10837 10841 10845 10848 10851 10855 10858 10860 10862 10865 10868 10870 10872 10873 10874 10875 10877 10880 10882 10885 10887 10889 10891 10893 10895 10896